FW2125 Weather Reports


Display with metric or nautical units.
time (UTC)temp
F
wind
direction
speed
MPH
gust
MPH
rain 1hr
in
rain 24hr
in
rain mn
in
humidity
%
barometer
mb
20260506214727 72 0.0 0.0 0.00 0.00 0.00 77 1013.3
20260506213725 73 338 3.0 4.0 0.00 0.00 0.00 75 1013.3
20260506212723 74 8.0 8.0 0.00 0.00 0.00 74 1013.1
20260506211723 75 327 7.0 8.0 0.00 0.00 0.00 74 1013.1
20260506210722 76 10 8.0 11.0 0.00 0.00 0.00 72 1013.0
20260506205731 77 338 4.0 5.0 0.00 0.00 0.00 72 1013.0
20260506204732 77 285 6.0 6.0 0.00 0.00 0.00 74 1012.9
20260506203731 75 293 4.0 8.0 0.00 0.00 0.00 78 1013.0
20260506202723 75 270 2.0 5.0 0.00 0.00 0.00 77 1013.2
20260506201745 76 68 5.0 7.0 0.00 0.00 0.00 78 1013.3
20260506200723 75 323 6.0 7.0 0.00 0.00 0.00 79 1013.3
20260506195800 76 30 7.0 9.0 0.00 0.00 0.00 78 1013.1
20260506194730 75 293 2.0 7.0 0.00 0.00 0.00 80 1013.0
20260506193731 79 308 7.0 8.0 0.00 0.00 0.00 77 1012.7
20260506192802 85 0.0 0.0 0.00 0.00 0.00 71 1012.5
20260506191722 86 0.0 0.0 0.00 0.00 0.00 69 1012.6
20260506190722 89 0.0 0.0 0.00 0.00 0.00 66 1012.7
20260506185725 89 0.0 0.0 0.00 0.00 0.00 66 1013.0
20260506184723 89 0.0 0.0 0.00 0.00 0.00 65 1013.0
20260506183720 90 293 0.0 2.0 0.00 0.00 0.00 65 1012.9
20260506182722 87 23 0.0 1.0 0.00 0.00 0.00 67 1012.8
20260506181742 86 293 1.0 3.0 0.00 0.00 0.00 69 1012.9
20260506180722 85 0.0 0.0 0.00 0.00 0.00 70 1013.1
20260506175731 82 0.0 0.0 0.00 0.00 0.00 72 1013.1
20260506174750 81 0.0 0.0 0.00 0.00 0.00 72 1013.1
20260506173725 80 0.0 0.0 0.00 0.00 0.00 74 1013.1
20260506172723 80 4.0 4.0 0.00 0.00 0.00 73 1013.2
20260506171743 82 0.0 0.0 0.00 0.00 0.00 72 1013.3
20260506170723 80 0.0 0.0 0.00 0.00 0.00 74 1013.4
20260506165730 77 0.0 0.0 0.00 0.00 0.00 79 1013.4
20260506164732 72 0.0 0.0 0.00 0.00 0.00 87 1013.8
20260506163731 70 0.0 0.0 0.00 0.00 0.00 91 1013.9
20260506162723 69 329 4.0 6.0 0.00 0.00 0.00 90 1014.1
20260506161726 76 0 8.0 9.0 0.00 0.00 0.00 83 1014.0
20260506160743 0 0.0 0.0 0.00 0.00 0.00
20260506155721 80 0.0 0.0 0.00 0.00 0.00 88 1013.7
20260506154731 80 0.0 0.0 0.00 0.00 0.00 89 1013.5
20260506153751 79 0.0 0.0 0.00 0.00 0.00 91 1013.5
20260506152723 78 0.0 0.0 0.00 0.00 0.00 91 1013.2
20260506151722 78 0.0 0.0 0.00 0.00 0.00 92 1012.7
20260506150723 78 0.0 0.0 0.00 0.00 0.00 92 1012.5
20260506145725 77 0.0 0.0 0.00 0.00 0.00 93 1012.3
20260506144724 77 0.0 0.0 0.00 0.00 0.00 94 1012.4
20260506143721 77 0.0 0.0 0.00 0.00 0.00 95 1012.2
20260506142719 76 0.0 0.0 0.00 0.00 0.00 96 1011.8
20260506141723 76 0.0 0.0 0.00 0.00 0.00 97 1012.3
20260506140722 75 0.0 0.0 0.00 0.00 0.00 97 1012.3
20260506135730 75 0.0 0.0 0.00 0.00 0.00 98 1012.1
20260506134731 75 0.0 0.0 0.00 0.00 0.00 98 1011.3
20260506133806 75 0.0 0.0 0.00 0.00 0.00 99 1011.3
20260506132724 0 0.0 0.0 0.00 0.00 0.00
20260506131722 74 113 3.0 4.0 0.00 0.00 0.00 99 1011.2
20260506130740 74 0.0 0.0 0.00 0.00 0.00 99 1011.0
20260506125731 74 113 3.0 4.0 0.00 0.00 0.00 99 1010.9
20260506124733 74 0.0 0.0 0.00 0.00 0.00 99 1010.9
20260506123731 74 0.0 0.0 0.00 0.00 0.00 99 1010.9
20260506122723 74 0.0 0.0 0.00 0.00 0.00 99 1010.9
20260506121723 74 0.0 0.0 0.00 0.00 0.00 99 1011.0
20260506120725 74 0.0 0.0 0.00 0.00 0.00 99 1010.9
20260506115722 74 0.0 0.0 0.00 0.00 0.00 99 1010.9
20260506114725 74 0.0 0.0 0.00 0.00 0.00 99 1010.7
20260506113736 74 0.0 0.0 0.00 0.00 0.00 99 1010.8
20260506112723 74 0.0 0.0 0.00 0.00 0.00 99 1010.7
20260506111743 74 0.0 0.0 0.00 0.00 0.00 99 1010.6
20260506110743 74 0.0 0.0 0.00 0.00 0.00 99 1010.6
20260506105727 74 0.0 0.0 0.00 0.00 0.00 99 1010.5
20260506104725 74 0.0 0.0 0.00 0.00 0.00 99 1010.4
20260506103722 74 0.0 0.0 0.00 0.00 0.00 99 1010.4
20260506102723 74 0.0 0.0 0.00 0.00 0.00 99 1010.3
20260506101723 74 0.0 0.0 0.00 0.00 0.00 99 1010.4
20260506100723 74 0.0 0.0 0.00 0.00 0.00 99 1010.3
20260506095731 74 0.0 0.0 0.00 0.00 0.00 99 1010.2
20260506094731 74 0.0 0.0 0.00 0.00 0.00 99 1010.2
20260506093727 74 0.0 0.0 0.00 0.00 0.00 99 1010.1
20260506092725 74 0.0 0.0 0.00 0.00 0.00 99 1009.8
20260506091723 74 135 4.0 5.0 0.00 0.00 0.00 99 1009.8
20260506090720 74 199 3.0 5.0 0.00 0.00 0.00 99 1009.8
20260506085731 74 146 1.0 3.0 0.00 0.00 0.00 99 1009.7
20260506084731 74 0.0 0.0 0.00 0.00 0.00 99 1009.7
20260506083732 74 0.0 0.0 0.00 0.00 0.00 99 1009.7
20260506082723 74 175 5.0 6.0 0.00 0.00 0.00 99 1009.7
20260506081723 75 2.0 4.0 0.00 0.00 0.00 99 1009.8
20260506080725 75 0.0 0.0 0.00 0.00 0.00 99 1010.0
20260506072743 75 0.0 0.0 0.00 0.00 0.00 98 1010.2
20260506071743 75 0.0 0.0 0.00 0.00 0.00 98 1010.3
20260506070723 75 1.0 2.0 0.00 0.00 0.00 98 1010.4
20260506061723 75 135 2.0 5.0 0.00 0.00 0.00 96 1010.3
20260506060723 75 0.0 0.0 0.00 0.00 0.00 96 1010.4
20260506050728 76 158 1.0 4.0 0.00 0.00 0.00 96 1010.5
20260506044731 76 180 3.0 6.0 0.00 0.00 0.00 96 1010.5
20260506043732 76 135 2.0 3.0 0.00 0.00 0.00 96 1010.5
20260506042723 76 158 2.0 4.0 0.00 0.00 0.00 96 1010.4
20260506041723 76 0.0 0.0 0.00 0.00 0.00 97 1010.2
20260506040725 76 0.0 0.0 0.00 0.00 0.00 97 1010.2
20260506035723 76 0.0 0.0 0.00 0.00 0.00 97 1010.1
20260506034721 76 180 1.0 4.0 0.00 0.00 0.00 97 1010.0
20260506033731 76 0.0 0.0 0.00 0.00 0.00 97 1009.9
20260506032723 76 0.0 0.0 0.00 0.00 0.00 97 1009.7
20260506031723 76 0.0 0.0 0.00 0.00 0.00 96 1009.5
20260506030723 76 0.0 0.0 0.00 0.00 0.00 96 1009.4
20260506025728 76 0.0 0.0 0.00 0.00 0.00 95 1009.2
20260506024725 76 0.0 0.0 0.00 0.00 0.00 94 1009.3
20260506023744 77 180 4.0 6.0 0.00 0.00 0.00 94 1009.1
20260506022723 77 158 3.0 6.0 0.00 0.00 0.00 93 1009.0
20260506021719 77 113 3.0 6.0 0.00 0.00 0.00 92 1008.6
20260506020723 77 135 6.0 7.0 0.00 0.00 0.00 92 1008.5
20260506015813 77 0.0 0.0 0.00 0.00 0.00 91 1008.4
20260506014731 77 158 2.0 4.0 0.00 0.00 0.00 91 1008.1
20260506013732 78 0.0 0.0 0.00 0.00 0.00 90 1008.2
20260506012743 78 0.0 0.0 0.00 0.00 0.00 89 1008.2
20260506011724 79 0.0 0.0 0.00 0.00 0.00 87 1008.2
20260506010723 80 0.0 0.0 0.00 0.00 0.00 85 1008.2
20260506005740 81 0.0 0.0 0.00 0.00 0.00 83 1008.2
20260506004731 82 0.0 0.0 0.00 0.00 0.00 82 1008.0
20260506003733 82 0.0 0.0 0.00 0.00 0.00 81 1007.9
20260506002723 83 0.0 0.0 0.00 0.00 0.00 80 1007.9
20260506001743 83 0.0 0.0 0.00 0.00 0.00 79 1008.0
20260506000726 84 158 0.0 1.0 0.00 0.00 0.00 78 1007.8
20260505235744 84 0.0 0.0 0.00 0.00 0.00 77 1007.8
20260505234722 85 0.0 0.0 0.00 0.00 0.00 75 1007.7
20260505233720 85 0.0 0.0 0.00 0.00 0.00 75 1007.6
20260505232723 85 0.0 0.0 0.00 0.00 0.00 75 1007.8
20260505231723 85 0.0 0.0 0.00 0.00 0.00 74 1007.6
20260505230724 86 158 2.0 6.0 0.00 0.00 0.00 73 1007.7
20260505225731 86 180 2.0 5.0 0.00 0.00 0.00 72 1007.5
20260505224727 86 0.0 0.0 0.00 0.00 0.00 73 1007.5
20260505223725 86 1.0 4.0 0.00 0.00 0.00 73 1007.4
20260505222728 86 135 1.0 4.0 0.00 0.00 0.00 73 1007.6
20260505221720 85 135 1.0 4.0 0.00 0.00 0.00 74 1007.5
20260505220723 86 158 5.0 7.0 0.00 0.00 0.00 72 1007.6
20260505215734 87 158 2.0 2.0 0.00 0.00 0.00 71 1007.4